Regional Weather Roundup
Issued by NWS New Orleans/Baton Rouge, LA

Home | Current Version | Previous Version | Text Only | Print | Product List | Glossary On
Versions: 1 2 3 4 5 6 7 8 9 10 11 12 13 14 15 16 17 18 19 20 21 22 23 24 25 26 27 28 29 30 31 32 33 34 35 36 37 38 39 40 41 42 43 44 45 46 47 48 49 50
000
ASUS44 KLIX 281311
RWRLIX
NEW ORLEANS REGIONAL WEATHER ROUNDUP
NATIONAL WEATHER SERVICE NEW ORLEANS LA
800 AM CDT FRI AUG 28 2015

NOTE: "FAIR" INDICATES FEW OR NO CLOUDS BELOW 12,000 FEET WITH NO
      SIGNIFICANT WEATHER AND/OR OBSTRUCTIONS TO VISIBILITY.
      SKY/WX - SKY CONDITION AND SIGNIFICANT WEATHER.
      TMP - AIR TEMPERATURE.     DP    - DEWPOINT TEMPERATURE.
      RH  - RELATIVE HUMIDITY.   PRES  - PRESSURE.
      HI  - HEAT INDEX.          WCI   - WIND CHILL INDEX.

*  THESE STATIONS ARE NOT NWS OR FAA STATIONS AND ARE NOT UNDER
   NWS QUALITY CONTROL.

LAZ038-040-048-061>063-065>067-069-281400-
SOUTHEAST LOUISIANA

CITY           SKY/WX    TMP DP  RH WIND       PRES   REMARKS
N.O. AUDUBON     N/A     79  70  74 MISG        N/A
N.O. INTL ARPT MOSUNNY   78  66  66 N9        29.99R
N.O. LAKEFRONT SUNNY     78  67  68 NE16      30.00R
N.O. DOWNTOWN*   N/A     77  66  69 N6        30.00R
RESERVE*         N/A     73  68  83 CALM      30.00R
SLIDELL        SUNNY     68  64  87 N7        29.99R
BATON ROUGE    SUNNY     69  60  73 NE5       30.01R
BOOTHVILLE     SUNNY     82  71  69 N5        29.98R
BELLE CHASSE   MOSUNNY   74  67  78 CALM      29.99R
BOGALUSA*      NOT AVBL
GALLIANO*      MOSUNNY   74  68  82 CALM      30.00R
NEW ROADS*       N/A     68  62  81 CALM      30.02R
GONZALES*        N/A     69  64  82 CALM      30.00R
HAMMOND*       SUNNY     70  59  68 N5        30.02R
HOUMA*         SUNNY     72  66  83 N5        30.00R
PORT FOURCHON* SUNNY     79  66  65 N7        30.00R

$$

MSZ070-080>082-281400-
SOUTHERN MISSISSIPPI

CITY           SKY/WX    TMP DP  RH WIND       PRES   REMARKS
MCCOMB         SUNNY     69  59  70 NE5       30.03R
GULFPORT       SUNNY     73  63  70 N7        29.98R
BILOXI         SUNNY     72  64  76 NE8       29.99R
PASCAGOULA     SUNNY     70  65  84 NE6       30.00R
STENNIS ARPT*  SUNNY     70  59  68 N7        29.99R

$$

COASTAL OBSERVATIONS
LAKE AND NEARSHORE STATIONS

STATION/POSITION TIME  TEMP    WIND        PRES    WAVE
                       AIR SEA DIR/SP/G            HT/PER
                 (UTC) (F)     (DEG/KT/KT) (MB)    (FT/S)
PASCAGOULA       1200   70      40/  4/  8 1014.4
WAVELAND YACHT   1200   71 78   30/  9/ 11 1015.1
GRAND ISLE       1200   78 83  360/ 11/ 13 1014.7
SOUTHWEST PASS   1200   80 85  300/  5/  7 1015.0
NEW CANAL        1200   78 83   40/ 13/ 14 1014.0
SHELL BEACH      1200   77 82   30/ 13/ 15 1014.0

OFFSHORE STATIONS

STATION/POSITION TIME  TEMP    WIND        PRES    WAVE
                       AIR SEA DIR/SP/G            HT/PER
                 (UTC) (F)     (DEG/KT/KT) (MB)    (FT/S)
64 S DAUPHIN ISL 1250   80 84  190/  8/ 10 1015.7    1

$$




USA.gov is the U.S. government's official web portal to all federal, state and local government web resources and services.